Vertical_Velocity
4 4 3 2 0 -0 -1 -1 -2 -2 -1 1 3 5 5 5 3 2 1 2 2 2 2 2 4 3 2 1 2 3 6 9 9 9 11 16 14 9 4 -0 1 5 12 22 30 30 26 19 15 12 9 7 7 5 5 6 5 4 4 5 4 4 3 3 2 1 1 0 0
5 4 3 3 2 1 1 -0 -1 -0 1 3 6 7 7 6 4 3 2 1 2 3 3 3 6 7 7 4 5 8 12 16 14 13 14 17 12 7 3 2 8 14 20 27 30 30 27 23 19 15 12 10 9 6 3 2 3 4 5 5 4 3 3 2 1 1 1 1 1
4 4 3 3 4 4 4 4 3 3 3 5 8 9 8 6 4 3 3 4 6 7 8 7 8 9 10 10 13 16 19 21 19 17 16 14 10 6 5 7 16 20 23 24 26 26 25 24 22 20 16 13 9 5 2 -0 1 3 4 4 3 3 2 1 0 1 2 1 0
6 6 6 4 4 6 7 7 6 5 6 6 7 7 6 4 3 3 4 5 8 9 10 9 9 9 10 13 17 20 23 24 21 19 16 13 10 8 8 13 20 22 22 20 21 22 23 23 22 20 18 14 10 7 3 2 2 2 2 3 3 3 4 4 6 7 5 2 1
8 9 8 6 5 5 6 6 6 7 7 8 7 6 5 3 2 2 3 4 6 8 9 8 9 8 8 9 13 18 23 23 22 22 21 19 16 14 14 20 24 24 23 21 21 20 20 19 18 16 13 10 9 9 8 6 4 2 1 1 2 4 6 9 12 10 7 7 6
5 6 8 10 10 9 7 5 5 6 7 7 7 6 5 3 2 2 2 3 5 6 7 6 6 6 5 4 9 15 21 24 25 27 27 26 23 21 21 23 25 25 24 23 20 18 15 13 11 10 8 8 10 11 10 8 3 0 -1 0 1 4 6 7 6 5 7 11 9
1 2 5 8 8 8 6 4 5 6 7 8 8 8 7 6 6 5 4 4 4 4 4 5 5 4 3 3 8 14 20 23 24 25 26 26 24 23 22 22 23 23 23 22 20 16 13 11 11 11 10 8 8 8 7 4 1 -0 -1 -0 0 2 3 4 4 3 4 6 5
-2 -0 2 6 5 4 3 2 3 6 8 10 11 12 12 12 12 10 8 5 3 3 4 4 5 5 5 6 10 15 19 21 20 20 20 21 21 21 20 19 19 19 19 19 18 17 15 13 11 9 7 4 3 2 1 0 -0 -0 0 1 1 1 1 2 2 2 3 5 4
-3 -2 2 7 5 2 0 -0 1 4 7 10 13 15 16 16 14 13 10 8 6 5 4 4 5 7 9 11 15 19 22 22 20 18 17 16 15 14 13 13 13 13 13 13 13 12 10 7 6 4 3 1 0 -0 1 2 2 3 4 5 4 3 2 0 0 0 1 3 2
-4 -1 4 7 2 -1 -2 -1 0 3 6 10 13 14 15 14 13 13 12 11 9 6 5 4 4 4 6 9 14 20 23 23 20 18 15 13 11 10 8 8 8 7 7 7 6 4 3 3 4 4 2 1 -0 -0 2 5 5 6 8 8 6 4 2 -1 -1 -1 -0 0 0
-4 -1 5 8 1 -3 -3 -1 -0 1 4 6 8 9 9 8 8 9 10 10 8 7 5 4 3 2 3 6 12 16 18 18 16 15 14 12 10 9 7 6 5 5 4 4 3 3 3 4 4 4 2 1 -1 -1 0 3 4 5 6 5 4 2 -0 -1 -1 -1 -1 -1 -1
-5 -1 5 9 1 -2 -3 -1 -1 -0 1 2 4 5 5 6 7 8 8 10 10 10 11 12 12 14 15 17 14 12 10 10 10 11 12 12 11 10 9 7 5 4 4 3 4 4 5 4 4 3 2 1 -0 -1 -1 0 2 3 3 4 5 5 5 5 4 2 0 -1 -1
-7 -1 6 10 4 1 -0 -1 -1 -0 1 2 3 4 6 9 11 12 11 8 8 8 10 12 16 19 20 17 11 6 4 3 4 5 6 8 9 9 8 7 6 5 4 3 3 4 4 3 2 2 1 0 -0 -1 -1 -1 -0 1 4 6 7 8 9 9 7 4 2 1 1
-10 -4 4 13 10 5 1 -1 -1 0 2 4 2 3 6 9 12 12 10 6 4 3 3 4 6 8 8 6 4 3 3 3 2 1 1 1 2 4 5 6 6 5 4 3 3 3 3 2 1 0 -0 -1 -1 -1 -2 -2 -1 0 2 4 6 7 7 6 5 4 3 2 2
-10 -8 -1 10 16 12 4 -0 -0 1 1 1 1 2 4 5 6 5 4 3 2 1 1 2 4 4 4 3 3 3 3 3 3 2 1 1 1 1 2 3 4 4 4 3 3 2 2 1 -0 -1 -1 -1 -1 -1 -1 -2 -1 -0 1 3 4 4 4 3 3 3 3 3 3
-6 -6 -4 2 13 13 7 0 1 1 0 -1 -0 1 3 3 2 1 1 1 1 1 1 1 3 5 6 5 4 3 2 2 2 1 1 1 1 1 2 3 3 4 4 3 3 2 1 -0 -0 -0 -0 -0 -0 0 0 -0 -0 -0 1 2 2 2 2 2 2 3 3 4 5
-3 -3 -2 -0 6 9 7 2 2 2 1 -0 -1 -1 -0 0 -0 -1 -1 -1 -1 -2 -2 -3 -2 0 3 5 5 4 3 2 1 1 0 0 1 1 2 3 3 3 3 3 2 1 1 0 2 2 1 -0 0 1 1 1 0 0 0 0 0 0 1 1 2 3 4 4 6
-3 -2 -1 -0 3 5 6 4 2 2 2 1 -1 -2 -3 -2 -3 -4 -4 -3 -3 -4 -4 -6 -6 -6 -4 -1 1 2 2 2 1 1 1 0 1 1 2 2 3 3 3 3 2 2 1 1 2 2 1 0 0 0 0 1 0 -0 -0 -1 -1 -0 1 2 3 4 5 5 6
-3 -3 -2 -2 -0 1 2 2 1 1 1 1 -0 -2 -3 -4 -4 -4 -5 -5 -4 -4 -4 -6 -7 -7 -7 -6 -4 -3 -1 1 0 0 -0 0 1 1 1 1 2 2 2 2 2 2 2 2 1 1 1 1 0 -0 -0 -0 -0 -0 -0 -1 -1 -1 0 2 5 6 7 6 6
-3 -4 -4 -4 -2 -1 -1 -1 -0 0 1 1 0 -1 -2 -4 -4 -5 -5 -6 -4 -4 -4 -4 -5 -6 -6 -7 -6 -5 -3 -1 -0 -1 -1 -1 0 0 1 1 1 1 1 1 1 1 1 1 1 1 1 0 0 -0 -1 -1 -1 -1 -1 -1 -1 -1 -1 0 2 4 5 5 4
-4 -4 -4 -4 -3 -3 -3 -2 -0 -0 -0 -0 -0 -0 -1 -2 -4 -4 -5 -5 -5 -5 -4 -4 -3 -3 -4 -5 -5 -5 -5 -3 -1 -1 -1 -1 -0 0 1 2 1 1 0 0 -0 0 0 0 0 0 0 0 0 -0 -1 -1 -2 -2 -2 -2 -1 -1 -1 -1 -1 0 1 1 1
-3 -3 -3 -3 -4 -4 -3 -1 -0 -0 -1 -1 -1 -0 -0 -1 -2 -3 -4 -4 -5 -5 -4 -2 -2 -2 -2 -3 -4 -4 -4 -4 -3 -2 -2 -1 -0 1 2 3 2 2 1 -0 -0 -1 -1 -1 -0 -0 0 0 0 -0 -0 -1 -2 -2 -2 -3 -2 -2 -2 -1 -1 -1 -1 -1 -1
-2 -2 -2 -2 -2 -2 -2 -1 -1 -1 -1 -1 -0 -0 0 -0 -0 -1 -1 -3 -4 -4 -4 -2 -1 -1 -1 -2 -2 -3 -4 -4 -4 -3 -2 -2 -1 0 1 2 2 2 1 0 -0 -1 -1 -1 -1 -0 0 1 0 0 0 -0 -1 -1 -2 -2 -2 -2 -2 -2 -2 -1 -1 -1 -1
-1 -1 -1 -1 -1 -1 -1 -1 -1 -1 -1 -0 -0 -0 0 0 1 1 -0 -2 -2 -3 -2 -2 -1 -1 -1 -1 -2 -2 -2 -2 -2 -2 -2 -2 -1 -0 0 1 1 1 0 0 -1 -1 -1 -1 -1 -1 -0 1 1 1 0 0 -0 -0 -1 -1 -1 -2 -2 -2 -1 -1 -0 0 0
-0 -0 0 0 -0 -0 -0 -0 -1 -1 -1 -0 -0 -0 -0 0 1 2 1 0 -1 -1 -1 -1 -1 -1 -1 -1 -2 -2 -2 -1 -1 -1 -2 -2 -1 -1 -0 0 0 -0 -0 -0 -1 -2 -2 -1 -1 -1 -1 -0 0 0 0 0 0 -0 -1 -1 -0 -1 -1 -1 -1 -1 -0 0 -1
0 1 1 0 0 -0 -0 -1 -1 -0 -0 -0 -0 -1 -1 0 2 2 2 1 0 0 -0 -0 -1 -1 -1 -1 -2 -2 -2 -1 -0 -0 -1 -1 -1 -1 -1 -0 -0 -1 -1 -1 -2 -2 -2 -2 -2 -1 -1 -1 -0 -0 0 -0 -0 -1 -1 -1 -0 0 0 -0 -0 -1 -1 -1 -1
0 0 -0 -0 0 -0 -1 -1 -0 -0 -0 -1 -1 -1 -0 1 1 1 1 1 1 1 1 0 0 -0 -1 -1 -2 -2 -2 -1 -0 -0 -1 -1 -1 -1 -1 -1 -1 -1 -2 -2 -2 -3 -3 -3 -2 -2 -2 -2 -1 -0 0 -1 -2 -2 -2 -1 -0 0 0 -0 -0 -1 -1 -2 -1
-0 -0 -0 0 -1 -1 -1 0 -0 -1 -1 -0 -0 -0 0 1 0 0 0 1 2 2 1 -0 1 1 0 -1 -2 -1 -1 -0 -1 -1 -1 -1 -1 -1 -1 -1 -1 -1 -2 -2 -2 -3 -3 -3 -3 -3 -3 -2 -1 -1 -1 -1 -1 -1 -1 -1 -0 0 0 -0 -0 -0 -1 -1 -1
0 0 0 0 -1 -1 -0 0 -1 -2 -1 1 0 0 0 -0 -0 -0 1 2 2 1 0 0 2 1 0 -2 -1 0 0 -1 -1 -1 -1 -1 -1 -1 -0 -0 -1 -1 -1 -1 -2 -2 -2 -2 -3 -2 -1 2 3 2 0 -1 -1 -1 -1 -1 0 0 1 0 0 -0 -1 -1 -1
1 1 0 -0 -0 0 0 -1 -2 -1 0 1 0 -0 -0 -0 -0 0 1 1 0 0 1 2 2 0 -1 -1 1 1 0 -2 -0 -0 -0 -1 -1 -1 -0 -0 -1 -1 -1 -1 -1 -1 -1 -1 -2 -2 -1 -0 0 -0 -0 -0 -0 -0 -0 -0 0 0 0 0 -0 -0 -1 -1 -1
0 -0 -0 -0 0 0 -0 -1 -1 -0 -0 0 -0 -0 -0 0 0 0 0 0 -0 0 1 2 -0 -1 -1 1 2 0 -1 -1 0 -0 -1 -1 -1 -0 -0 -1 -2 -2 -1 -1 -1 -1 -1 -1 -1 -1 -2 -2 -2 -2 -2 -1 -1 -1 -1 -0 -0 -0 -0 -0 -0 -1 -1 -1 -0
-1 -1 -1 -0 -0 -0 -0 -0 -1 -1 -1 -0 -0 0 1 1 0 0 0 0 -0 -0 -0 -0 -1 -1 0 2 1 -1 -1 -0 -0 -1 -1 -1 -0 -0 -1 -1 -2 -2 -1 -1 -2 -2 -1 -1 -1 -1 -1 -1 -2 -2 -2 -2 -1 -1 -1 -1 -0 -0 -0 -1 -1 -1 -1 -0 0
-2 -1 -1 -1 -1 -1 -0 -0 -1 -1 -1 -1 -0 0 1 0 1 1 0 -0 -0 -0 -1 -1 -0 0 1 1 0 -0 -0 0 0 -1 -1 -1 -1 -1 -1 -2 -2 -2 -1 -2 -2 -2 -1 -1 -1 -1 -1 -1 -1 -2 -2 -2 -1 -1 -1 -1 -1 -0 -0 -0 -1 -0 -0 0 0
-2 -1 -1 -1 -1 -1 -1 -1 -1 -1 -1 -1 -1 -1 0 0 0 0 -0 0 0 0 -0 0 0 1 1 2 1 1 0 1 1 -0 -1 -1 -1 -1 -2 -2 -2 -2 -2 -3 -3 -2 -1 -1 -1 -1 -1 -1 -2 -2 -2 -2 -1 -1 -1 -1 -0 0 0 -0 -0 0 0 1 1
-1 -1 -1 -1 -1 -1 -2 -2 -2 -1 -1 -1 -2 -1 -1 -0 -1 -1 -0 1 1 1 0 0 1 1 1 2 2 1 1 1 1 0 -0 -0 -0 -1 -2 -2 -2 -2 -2 -4 -3 -2 -1 -1 -1 -1 -1 -1 -2 -2 -2 -2 -1 -1 -0 -0 -0 0 0 0 0 0 1 1 1
-1 -1 -1 -1 -1 -1 -1 -2 -1 -1 -1 -1 -1 -1 -1 -2 -2 -1 -0 1 1 0 -0 1 2 2 1 1 2 2 2 1 1 0 0 0 0 -1 -1 -2 -1 -1 -2 -4 -3 -2 -1 -2 -2 -1 -1 -1 -2 -3 -3 -2 -2 -1 -0 -0 -0 -0 0 1 0 0 1 1 1
-2 -2 -1 -0 -0 -0 -0 -1 -0 -1 -1 -1 -1 -1 -2 -2 -2 -2 -1 1 -0 -1 -0 2 2 1 0 1 2 2 1 1 1 0 -0 0 0 -0 -1 -1 -0 -1 -2 -2 -3 -2 -2 -2 -2 -2 -1 -2 -3 -3 -3 -2 -2 -1 -1 -0 -0 0 0 1 0 1 1 1 1
-2 -2 -1 -1 -0 0 0 1 1 -0 -0 -0 -0 -1 -2 -2 -2 -2 -1 -0 -1 -1 -0 2 1 0 -0 1 1 1 1 1 1 0 0 0 0 -0 -0 -0 -0 -0 -0 -1 -2 -2 -2 -2 -2 -2 -2 -3 -4 -4 -3 -3 -2 -1 -1 -0 -0 0 0 1 1 1 1 1 1
-2 -2 -2 -1 -0 0 1 1 1 1 1 1 0 -1 -1 -1 -2 -2 -1 -0 -1 -1 0 1 -0 -1 -0 2 1 0 0 1 1 1 1 0 0 -0 -0 -1 -0 1 1 -1 -2 -2 -1 -1 -2 -2 -3 -3 -4 -4 -3 -3 -2 -2 -1 -0 -0 -0 0 1 1 1 1 1 1
-2 -2 -2 -1 -1 0 1 1 1 1 2 2 0 -0 -1 -1 -1 -1 -0 0 -1 -1 0 1 -0 -1 -0 1 -0 -0 -0 1 2 1 1 0 0 -0 -0 -1 0 1 1 -0 -2 -2 -1 -1 -2 -2 -3 -3 -4 -4 -3 -2 -2 -2 -1 -0 -0 -0 0 1 2 1 1 0 1
-2 -2 -2 -2 -1 -0 0 0 1 2 2 2 1 0 1 1 0 -0 -0 -0 -1 -0 0 1 0 -0 -0 -0 -1 -0 0 1 1 1 0 -0 -0 0 -0 -1 0 1 1 -0 -2 -2 -1 -1 -1 -2 -2 -3 -3 -3 -2 -2 -2 -1 -1 0 0 0 1 2 2 1 0 -0 0
Height
5727 5728 5729 5730 5731 5732 5733 5734 5735 5736 5737 5738 5739 5741 5742 5743 5744 5744 5745 5746 5748 5749 5750 5750 5749 5748 5747 5748 5748 5749 5750 5751 5752 5754 5756 5759 5762 5764 5764 5763 5763 5763 5763 5765 5767 5768 5767 5765 5763 5762 5760 5760 5760 5761 5762 5764 5763 5762 5763 5764 5764 5765 5765 5765 5765 5766 5766 5766 5766
5724 5725 5726 5728 5728 5729 5730 5731 5732 5733 5733 5735 5736 5738 5738 5739 5740 5740 5741 5743 5744 5745 5746 5746 5747 5746 5744 5744 5745 5746 5747 5748 5749 5751 5753 5757 5759 5761 5761 5761 5761 5761 5762 5764 5764 5765 5764 5763 5761 5760 5758 5758 5758 5758 5758 5759 5759 5760 5760 5761 5762 5762 5763 5762 5762 5762 5763 5763 5763
5722 5723 5724 5725 5727 5728 5728 5729 5729 5730 5731 5732 5733 5734 5735 5735 5736 5737 5738 5738 5740 5741 5743 5743 5743 5743 5743 5743 5743 5743 5744 5746 5747 5749 5751 5753 5755 5757 5758 5759 5759 5759 5760 5761 5761 5761 5760 5760 5759 5758 5757 5756 5755 5755 5755 5755 5756 5757 5758 5758 5759 5759 5759 5759 5759 5759 5759 5759 5759
5720 5722 5723 5723 5724 5725 5726 5726 5727 5727 5728 5728 5729 5730 5731 5732 5733 5733 5733 5734 5736 5737 5738 5739 5739 5740 5740 5740 5742 5742 5743 5744 5746 5747 5748 5749 5751 5753 5754 5756 5757 5757 5757 5757 5757 5756 5756 5756 5756 5756 5755 5755 5754 5753 5752 5753 5753 5754 5755 5756 5756 5756 5756 5756 5756 5756 5756 5756 5756
5718 5719 5720 5722 5722 5722 5723 5723 5723 5724 5724 5725 5726 5726 5727 5728 5729 5730 5730 5730 5731 5732 5733 5734 5735 5735 5735 5736 5738 5739 5740 5742 5743 5744 5745 5747 5748 5750 5752 5754 5754 5754 5754 5753 5753 5752 5752 5751 5752 5753 5753 5752 5750 5750 5750 5750 5750 5751 5752 5753 5753 5753 5754 5754 5755 5754 5753 5754 5753
5713 5715 5718 5721 5721 5720 5719 5720 5720 5721 5722 5722 5723 5723 5724 5725 5727 5727 5727 5727 5727 5728 5728 5729 5729 5730 5731 5732 5733 5735 5737 5739 5741 5743 5744 5746 5748 5749 5751 5751 5751 5750 5750 5750 5749 5748 5748 5748 5749 5749 5749 5747 5747 5747 5747 5747 5748 5748 5749 5750 5750 5751 5752 5751 5750 5750 5751 5753 5752
5711 5713 5715 5716 5716 5716 5716 5716 5717 5718 5719 5720 5721 5722 5723 5723 5724 5725 5725 5725 5725 5725 5725 5725 5725 5726 5726 5727 5729 5732 5734 5736 5738 5740 5742 5743 5745 5746 5746 5746 5745 5744 5745 5746 5746 5747 5746 5746 5746 5745 5744 5743 5743 5743 5744 5744 5745 5745 5746 5747 5748 5748 5747 5747 5747 5747 5748 5748 5748
5708 5709 5712 5713 5712 5712 5713 5713 5714 5715 5717 5718 5720 5721 5721 5721 5722 5722 5722 5722 5722 5722 5722 5722 5722 5722 5723 5724 5726 5728 5730 5732 5733 5735 5736 5737 5737 5737 5737 5738 5738 5738 5739 5740 5743 5743 5743 5742 5740 5739 5739 5739 5740 5740 5741 5741 5742 5743 5743 5744 5745 5745 5744 5744 5744 5744 5745 5746 5745
5705 5707 5709 5709 5708 5709 5710 5711 5712 5713 5714 5716 5718 5718 5718 5718 5719 5719 5719 5720 5720 5720 5720 5720 5720 5720 5720 5721 5723 5725 5727 5728 5729 5730 5731 5731 5731 5731 5732 5732 5733 5733 5734 5736 5737 5736 5735 5735 5735 5735 5735 5736 5737 5737 5738 5739 5740 5740 5741 5742 5743 5743 5742 5741 5741 5741 5742 5743 5743
5702 5705 5706 5704 5704 5706 5707 5708 5709 5710 5711 5713 5713 5714 5714 5716 5717 5718 5718 5718 5718 5719 5719 5718 5718 5718 5719 5720 5721 5723 5724 5725 5725 5726 5726 5727 5727 5727 5728 5728 5729 5729 5730 5731 5731 5731 5731 5732 5732 5733 5733 5733 5734 5735 5736 5738 5738 5739 5739 5739 5739 5739 5739 5738 5738 5738 5738 5739 5739
5699 5702 5703 5702 5702 5703 5704 5705 5706 5707 5708 5708 5709 5710 5711 5713 5714 5714 5714 5714 5716 5717 5718 5718 5718 5718 5718 5719 5720 5720 5720 5720 5721 5721 5722 5723 5723 5724 5724 5725 5725 5726 5726 5727 5727 5728 5728 5729 5729 5729 5730 5730 5731 5732 5733 5734 5736 5737 5737 5736 5735 5735 5735 5735 5735 5735 5736 5735 5735
5697 5699 5700 5698 5700 5700 5701 5702 5703 5703 5705 5706 5707 5708 5708 5709 5710 5710 5710 5711 5712 5713 5714 5715 5717 5718 5719 5718 5716 5715 5714 5715 5716 5717 5718 5719 5720 5720 5721 5721 5722 5722 5723 5724 5725 5726 5726 5726 5726 5726 5727 5727 5728 5729 5730 5731 5733 5733 5734 5733 5734 5733 5733 5733 5733 5734 5734 5733 5733
5695 5697 5698 5697 5697 5697 5698 5698 5699 5701 5702 5704 5704 5704 5705 5706 5707 5707 5707 5707 5708 5708 5709 5710 5711 5712 5712 5711 5710 5710 5710 5710 5711 5712 5713 5714 5715 5716 5717 5718 5718 5719 5719 5720 5721 5723 5723 5723 5723 5723 5723 5724 5725 5726 5727 5728 5729 5730 5732 5733 5733 5733 5733 5732 5732 5732 5731 5731 5731
5691 5694 5696 5696 5695 5694 5694 5695 5696 5698 5700 5700 5700 5700 5702 5703 5703 5703 5703 5703 5703 5704 5705 5705 5706 5705 5705 5706 5706 5707 5707 5708 5708 5708 5709 5709 5710 5711 5712 5713 5714 5715 5716 5717 5718 5719 5720 5719 5720 5720 5720 5721 5722 5723 5724 5724 5726 5727 5728 5728 5729 5729 5729 5728 5728 5728 5728 5728 5728
5688 5690 5693 5695 5694 5691 5690 5692 5693 5694 5694 5695 5695 5696 5698 5698 5698 5699 5699 5700 5700 5701 5702 5703 5703 5703 5703 5703 5704 5704 5704 5705 5705 5706 5706 5707 5708 5708 5709 5709 5710 5711 5712 5713 5714 5715 5715 5716 5716 5717 5718 5718 5719 5720 5721 5721 5722 5722 5723 5723 5724 5724 5724 5724 5724 5724 5724 5724 5725
5683 5685 5688 5690 5689 5687 5687 5688 5689 5690 5691 5692 5693 5693 5694 5694 5695 5696 5697 5697 5698 5698 5699 5700 5700 5701 5701 5701 5701 5702 5702 5702 5703 5703 5703 5704 5705 5705 5706 5707 5707 5708 5709 5709 5710 5711 5712 5712 5713 5714 5715 5715 5716 5717 5717 5718 5718 5718 5719 5720 5720 5720 5720 5720 5721 5721 5721 5721 5721
5680 5682 5683 5684 5685 5684 5684 5685 5686 5687 5688 5688 5689 5690 5691 5691 5692 5693 5694 5694 5695 5695 5696 5697 5698 5698 5698 5698 5698 5699 5699 5699 5700 5700 5701 5702 5702 5703 5703 5704 5704 5705 5705 5706 5707 5707 5708 5710 5710 5711 5712 5713 5713 5713 5714 5714 5715 5715 5716 5716 5716 5717 5717 5717 5717 5717 5718 5718 5718
5677 5678 5679 5680 5680 5681 5681 5681 5682 5683 5684 5685 5686 5687 5687 5688 5689 5690 5691 5691 5692 5693 5693 5693 5694 5695 5695 5695 5695 5696 5696 5697 5697 5698 5698 5699 5699 5700 5701 5701 5701 5702 5702 5703 5703 5704 5705 5707 5707 5708 5709 5709 5710 5711 5711 5712 5712 5712 5713 5713 5713 5713 5713 5714 5714 5714 5714 5715 5715
5673 5674 5675 5676 5676 5677 5677 5678 5679 5679 5680 5681 5682 5683 5684 5685 5686 5687 5687 5688 5689 5689 5690 5690 5691 5692 5692 5693 5693 5693 5693 5693 5694 5694 5695 5696 5696 5697 5698 5698 5699 5699 5699 5700 5700 5701 5702 5702 5703 5704 5705 5706 5707 5708 5708 5709 5709 5709 5709 5709 5710 5710 5711 5711 5711 5712 5712 5712 5712
5670 5671 5672 5672 5673 5673 5673 5674 5674 5675 5676 5677 5678 5679 5680 5681 5682 5683 5684 5684 5685 5686 5686 5687 5688 5688 5689 5689 5690 5690 5690 5691 5691 5691 5692 5692 5693 5694 5695 5695 5696 5696 5697 5697 5697 5698 5698 5699 5699 5700 5701 5703 5703 5704 5705 5706 5706 5706 5706 5707 5707 5707 5708 5708 5708 5708 5708 5709 5709
5666 5667 5668 5668 5669 5669 5670 5670 5670 5671 5672 5672 5673 5674 5675 5677 5678 5679 5680 5680 5681 5682 5683 5684 5684 5685 5685 5686 5687 5687 5687 5688 5688 5688 5688 5689 5690 5691 5691 5692 5693 5693 5693 5694 5694 5695 5695 5695 5696 5697 5698 5699 5700 5701 5702 5702 5703 5703 5703 5703 5703 5704 5704 5704 5705 5705 5705 5705 5705
5663 5663 5664 5664 5665 5666 5666 5666 5667 5667 5668 5668 5669 5670 5671 5672 5673 5674 5675 5676 5677 5678 5679 5680 5681 5681 5682 5682 5683 5683 5684 5685 5685 5685 5685 5686 5686 5687 5688 5688 5689 5689 5690 5690 5691 5691 5692 5692 5692 5693 5694 5695 5696 5697 5698 5698 5699 5699 5699 5700 5700 5700 5701 5701 5701 5701 5702 5702 5701
5659 5659 5660 5660 5661 5662 5662 5663 5663 5663 5664 5664 5665 5665 5666 5667 5668 5669 5670 5671 5673 5673 5674 5675 5676 5677 5678 5678 5679 5680 5681 5681 5682 5682 5682 5683 5683 5683 5683 5684 5685 5686 5686 5686 5687 5687 5688 5688 5689 5689 5690 5691 5692 5692 5693 5694 5695 5695 5696 5696 5696 5697 5697 5697 5698 5698 5698 5698 5698
5655 5655 5656 5656 5657 5658 5658 5658 5659 5660 5660 5660 5661 5661 5662 5663 5663 5664 5666 5667 5668 5669 5670 5671 5672 5673 5673 5674 5675 5676 5677 5678 5678 5679 5679 5679 5679 5680 5680 5680 5681 5681 5682 5682 5683 5683 5684 5685 5685 5686 5686 5687 5688 5688 5689 5690 5690 5691 5692 5692 5693 5693 5693 5693 5693 5694 5694 5694 5694
5651 5651 5652 5652 5653 5653 5654 5654 5655 5656 5656 5656 5657 5657 5658 5658 5659 5660 5661 5662 5663 5664 5665 5666 5667 5668 5669 5669 5670 5671 5673 5673 5674 5675 5675 5676 5676 5676 5676 5677 5677 5677 5678 5678 5679 5679 5680 5681 5681 5682 5683 5683 5684 5684 5685 5686 5686 5687 5688 5688 5688 5689 5689 5689 5690 5690 5691 5691 5690
5647 5647 5648 5648 5648 5649 5650 5650 5651 5651 5652 5652 5653 5653 5654 5654 5655 5656 5656 5657 5658 5659 5660 5661 5662 5663 5664 5665 5666 5667 5668 5669 5670 5670 5671 5672 5672 5672 5673 5673 5673 5673 5673 5674 5675 5675 5676 5677 5677 5678 5678 5679 5680 5680 5681 5681 5682 5682 5683 5683 5684 5685 5685 5686 5686 5686 5686 5687 5687
5643 5643 5643 5643 5644 5645 5645 5646 5646 5647 5648 5648 5649 5649 5650 5650 5651 5652 5652 5653 5653 5654 5655 5656 5657 5658 5659 5660 5661 5663 5663 5664 5665 5666 5666 5667 5668 5668 5668 5668 5668 5669 5669 5670 5671 5671 5672 5672 5673 5673 5674 5675 5675 5676 5677 5677 5678 5678 5679 5680 5680 5681 5681 5682 5682 5682 5682 5683 5683
5638 5639 5639 5639 5640 5641 5641 5642 5642 5643 5643 5644 5645 5645 5646 5646 5647 5648 5648 5649 5649 5650 5651 5652 5652 5653 5654 5656 5657 5658 5658 5659 5660 5661 5662 5663 5663 5664 5664 5664 5665 5665 5665 5666 5667 5667 5668 5668 5669 5669 5670 5671 5671 5672 5672 5673 5674 5675 5676 5676 5676 5677 5677 5678 5678 5678 5678 5679 5679
5634 5635 5635 5636 5636 5637 5637 5638 5638 5639 5639 5640 5640 5641 5642 5642 5643 5643 5644 5645 5645 5646 5647 5648 5648 5649 5650 5651 5652 5653 5654 5655 5656 5656 5657 5658 5659 5659 5660 5660 5661 5661 5662 5662 5663 5663 5663 5664 5665 5666 5667 5667 5667 5668 5668 5669 5670 5670 5671 5672 5672 5673 5673 5673 5674 5674 5675 5675 5675
5631 5631 5631 5632 5632 5633 5633 5633 5634 5635 5635 5636 5637 5637 5638 5638 5639 5640 5640 5641 5642 5643 5643 5643 5644 5645 5646 5647 5648 5648 5649 5650 5651 5652 5653 5654 5654 5655 5655 5656 5657 5657 5658 5658 5659 5659 5660 5660 5661 5662 5663 5663 5663 5664 5665 5665 5666 5667 5667 5668 5668 5669 5669 5670 5670 5670 5671 5671 5672
5627 5627 5628 5628 5628 5629 5629 5630 5630 5631 5631 5632 5633 5633 5634 5634 5635 5636 5636 5637 5638 5638 5639 5640 5641 5642 5642 5643 5643 5644 5645 5646 5646 5647 5648 5649 5650 5651 5651 5652 5652 5653 5653 5654 5654 5655 5656 5656 5657 5657 5658 5659 5659 5660 5661 5661 5662 5663 5663 5664 5665 5665 5665 5666 5666 5667 5667 5668 5668
5623 5624 5624 5624 5624 5625 5625 5626 5626 5627 5628 5628 5629 5629 5630 5631 5631 5632 5632 5633 5634 5634 5635 5636 5637 5638 5638 5638 5639 5640 5641 5641 5642 5643 5644 5645 5645 5646 5647 5647 5648 5648 5649 5650 5650 5651 5652 5652 5653 5653 5654 5655 5656 5656 5657 5658 5658 5659 5660 5660 5661 5661 5662 5662 5662 5663 5663 5664 5664
5620 5620 5620 5620 5621 5621 5621 5622 5622 5623 5623 5624 5625 5625 5626 5627 5627 5628 5628 5629 5630 5630 5631 5632 5633 5633 5634 5634 5635 5636 5636 5637 5638 5638 5639 5640 5641 5642 5642 5643 5643 5644 5645 5646 5646 5647 5648 5648 5649 5650 5650 5651 5652 5652 5653 5654 5654 5655 5656 5656 5657 5657 5658 5658 5658 5659 5659 5660 5660
5616 5616 5616 5617 5617 5617 5618 5618 5618 5619 5619 5620 5620 5621 5622 5622 5623 5624 5624 5625 5626 5626 5627 5628 5628 5629 5630 5630 5631 5632 5632 5633 5633 5634 5635 5636 5637 5638 5638 5639 5639 5640 5641 5642 5642 5643 5643 5644 5645 5646 5646 5647 5648 5648 5649 5650 5651 5651 5652 5653 5653 5653 5654 5654 5654 5655 5655 5656 5657
5611 5612 5612 5613 5613 5613 5614 5614 5614 5615 5615 5616 5616 5617 5617 5618 5619 5619 5620 5621 5622 5623 5623 5624 5624 5625 5626 5626 5627 5628 5628 5628 5629 5630 5631 5632 5633 5633 5634 5635 5635 5636 5637 5638 5638 5639 5639 5640 5641 5642 5642 5643 5643 5644 5645 5646 5647 5648 5648 5648 5649 5649 5650 5650 5651 5651 5652 5652 5653
5607 5608 5608 5608 5609 5609 5610 5610 5610 5611 5611 5611 5612 5612 5613 5613 5614 5615 5616 5617 5618 5618 5619 5620 5620 5621 5622 5622 5623 5623 5624 5625 5625 5626 5627 5628 5628 5629 5630 5631 5631 5632 5633 5633 5634 5635 5635 5636 5637 5638 5638 5639 5640 5640 5641 5642 5643 5643 5644 5645 5645 5645 5646 5646 5647 5648 5648 5649 5649
5602 5603 5603 5604 5604 5605 5605 5606 5606 5607 5607 5607 5608 5608 5608 5609 5610 5611 5611 5612 5613 5614 5615 5615 5616 5617 5618 5618 5619 5619 5620 5621 5621 5622 5623 5624 5625 5626 5626 5627 5628 5628 5629 5630 5630 5631 5631 5632 5633 5634 5634 5635 5636 5637 5638 5638 5639 5640 5640 5641 5641 5642 5642 5643 5643 5644 5645 5645 5646
5597 5598 5598 5599 5599 5600 5601 5601 5602 5602 5603 5603 5603 5604 5604 5605 5606 5606 5607 5608 5609 5610 5610 5611 5612 5613 5613 5614 5615 5615 5616 5617 5618 5618 5619 5620 5621 5622 5623 5623 5624 5625 5625 5626 5627 5627 5628 5628 5629 5630 5630 5631 5632 5633 5633 5634 5635 5636 5636 5637 5638 5638 5638 5639 5640 5641 5641 5642 5643
5592 5592 5593 5594 5594 5595 5596 5597 5597 5598 5598 5598 5599 5600 5600 5601 5601 5602 5602 5603 5604 5605 5606 5607 5608 5608 5609 5610 5611 5611 5612 5613 5613 5614 5615 5616 5617 5618 5619 5620 5620 5621 5621 5622 5623 5623 5624 5624 5625 5626 5627 5627 5628 5629 5630 5631 5631 5632 5633 5633 5634 5634 5635 5636 5637 5637 5638 5638 5639
5587 5587 5588 5588 5589 5590 5591 5592 5592 5593 5593 5594 5595 5595 5596 5596 5597 5597 5598 5598 5599 5600 5601 5602 5603 5603 5604 5605 5606 5607 5608 5608 5609 5610 5611 5612 5613 5613 5615 5616 5616 5617 5617 5618 5619 5619 5620 5621 5622 5622 5623 5623 5624 5625 5626 5627 5628 5628 5629 5630 5631 5632 5632 5633 5633 5634 5635 5635 5636
5581 5582 5583 5583 5584 5585 5585 5586 5587 5588 5588 5589 5590 5590 5591 5591 5592 5593 5593 5594 5595 5595 5596 5597 5598 5599 5600 5601 5602 5603 5604 5604 5605 5606 5607 5608 5608 5609 5611 5612 5612 5613 5613 5614 5615 5616 5616 5617 5618 5618 5619 5620 5621 5622 5623 5623 5624 5625 5626 5627 5628 5628 5629 5630 5630 5631 5632 5632 5633